EW1647 Weather Reports


Display with metric or nautical units.
time (UTC)temp
F
wind
direction
speed
MPH
gust
MPH
rain 1hr
in
rain 24hr
in
rain mn
in
humidity
%
barometer
mb
20260901004601 70 60 2.0 7.0 0.00 0.00 0.00 65 1008.9
20260901003106 71 51 3.0 9.0 0.00 0.00 0.00 63 1008.9
20260901001555 72 144 3.0 9.0 0.00 0.00 0.00 59 1009.0
20260901000054 72 55 4.0 11.0 0.00 0.00 0.00 59 1009.1
20260831234552 73 305 3.0 10.0 0.00 0.00 0.00 58 1009.1
20260831233051 74 320 2.0 5.0 0.00 0.00 0.00 60 1009.2
20260831231557 74 318 2.0 8.0 0.00 0.00 0.00 60 1009.4
20260831230049 73 293 3.0 10.0 0.00 0.00 0.00 62 1009.5
20260831224545 73 298 3.0 5.0 0.00 0.00 0.00 60 1009.7
20260831223043 74 298 3.0 9.0 0.00 0.00 0.00 59 1009.9
20260831221544 74 323 2.0 8.0 0.00 0.00 0.00 60 1010.2
20260831220036 73 317 4.0 9.0 0.00 0.00 0.00 61 1010.4
20260831214534 73 319 4.0 8.0 0.00 0.00 0.00 62 1010.5
20260831213039 72 309 4.0 9.0 0.00 0.00 0.00 61 1010.7
20260831211530 72 317 3.0 8.0 0.00 0.00 0.00 62 1010.8
20260831210026 72 294 4.0 8.0 0.00 0.00 0.00 63 1011.0
20260831204524 71 323 2.0 8.0 0.00 0.00 0.00 65 1011.2
20260831203020 70 316 3.0 8.0 0.00 0.00 0.00 65 1011.3
20260831201527 70 320 3.0 6.0 0.00 0.00 0.00 67 1011.5
20260831200019 69 309 2.0 8.0 0.00 0.00 0.00 69 1011.8
20260831194512 69 310 2.0 6.0 0.00 0.00 0.00 70 1012.0
20260831193010 68 333 3.0 6.0 0.00 0.00 0.00 71 1012.2
20260831191505 67 292 2.0 6.0 0.00 0.00 0.00 73 1012.3
20260831190002 66 308 3.0 6.0 0.00 0.00 0.00 75 1012.7
20260831184600 66 309 3.0 8.0 0.00 0.00 0.00 75 1012.9
20260831183056 65 310 4.0 10.0 0.00 0.00 0.00 78 1012.9
20260831181553 63 304 7.0 12.0 0.00 0.00 0.00 80 1013.2
20260831180049 62 360 2.0 8.0 0.00 0.00 0.00 84 1013.3
20260831174545 61 331 1.0 9.0 0.00 0.00 0.00 86 1013.4
20260831173042 61 348 2.0 6.0 0.00 0.00 0.00 90 1013.5
20260831171544 60 5 4.0 9.0 0.00 0.00 0.00 92 1013.6
20260831170037 59 349 4.0 6.0 0.00 0.00 0.00 93 1013.6
20260831164532 59 350 3.0 6.0 0.00 0.00 0.00 94 1013.8
20260831163036 58 338 1.0 4.0 0.00 0.00 0.00 95 1014.0
20260831161527 57 345 3.0 6.0 0.00 0.00 0.00 95 1014.1
20260831160025 57 339 2.0 8.0 0.00 0.00 0.00 95 1014.3
20260831154533 56 355 3.0 6.0 0.00 0.00 0.00 95 1014.3
20260831153035 56 340 2.0 4.0 0.00 0.00 0.00 95 1014.4
20260831151523 55 351 2.0 4.0 0.00 0.00 0.00 95 1014.5
20260831150023 55 360 0.0 0.0 0.00 0.00 0.00 94 1014.5
20260831144522 54 360 0.0 1.0 0.00 0.00 0.00 94 1014.3
20260831143022 54 360 0.0 2.0 0.00 0.00 0.00 94 1014.4
20260831141520 54 355 0.0 0.0 0.00 0.00 0.00 93 1014.4
20260831140023 54 355 0.0 5.0 0.00 0.00 0.00 93 1014.4
20260831134520 54 355 3.0 5.0 0.00 0.00 0.00 93 1014.4
20260831133019 54 13 0.0 2.0 0.00 0.00 0.00 93 1014.3
20260831131518 55 13 2.0 4.0 0.00 0.00 0.00 93 1014.3
20260831130015 55 74 2.0 3.0 0.00 0.00 0.00 93 1014.4
20260831124514 55 74 0.0 0.0 0.00 0.00 0.00 93 1014.5
20260831123011 56 74 1.0 3.0 0.00 0.00 0.00 93 1014.6
20260831121509 56 76 1.0 4.0 0.00 0.00 0.00 94 1014.7
20260831120011 56 49 2.0 9.0 0.00 0.00 0.00 93 1014.8
20260831114509 56 351 3.0 8.0 0.00 0.00 0.00 93 1014.9
20260831113005 56 28 0.0 6.0 0.00 0.00 0.00 93 1015.1
20260831111501 56 59 0.0 3.0 0.00 0.00 0.00 93 1015.1
20260831110100 56 67 2.0 5.0 0.00 0.00 0.00 93 1015.3
20260831104559 56 74 0.0 4.0 0.00 0.00 0.00 92 1015.3
20260831103058 57 61 1.0 6.0 0.00 0.00 0.00 92 1015.4
20260831101556 57 300 2.0 11.0 0.00 0.00 0.00 93 1015.4
20260831100116 57 51 1.0 5.0 0.00 0.00 0.00 92 1015.6
20260831094552 57 5 3.0 9.0 0.00 0.00 0.00 92 1015.7
20260831093050 57 63 2.0 6.0 0.00 0.00 0.00 92 1015.9
20260831091552 57 67 2.0 9.0 0.00 0.00 0.00 92 1016.1
20260831090047 57 43 2.0 6.0 0.00 0.00 0.00 91 1016.2
20260831084608 57 104 2.0 6.0 0.00 0.00 0.00 91 1016.3
20260831083042 57 106 2.0 5.0 0.00 0.00 0.00 91 1016.3
20260831081541 57 48 2.0 8.0 0.00 0.00 0.00 90 1016.5
20260831080038 57 59 0.0 5.0 0.00 0.00 0.00 89 1016.4
20260831074545 57 101 1.0 4.0 0.00 0.00 0.00 89 1016.7
20260831073039 58 75 2.0 5.0 0.00 0.00 0.00 88 1016.7
20260831071534 58 65 1.0 5.0 0.00 0.00 0.00 86 1016.8
20260831070032 58 40 1.0 6.0 0.00 0.00 0.00 85 1017.0
20260831064529 58 28 4.0 10.0 0.00 0.00 0.00 85 1017.0
20260831063027 58 28 2.0 8.0 0.00 0.00 0.00 84 1017.2
20260831061526 58 15 3.0 9.0 0.00 0.00 0.00 83 1017.4
20260831060025 59 30 2.0 5.0 0.00 0.00 0.00 81 1017.3
20260831054525 59 67 4.0 6.0 0.00 0.00 0.00 81 1017.6
20260831053021 60 101 1.0 4.0 0.00 0.00 0.00 80 1017.7
20260831051520 60 106 1.0 4.0 0.00 0.00 0.00 79 1017.9
20260831050021 61 82 2.0 5.0 0.00 0.00 0.00 77 1018.0
20260831044520 61 99 3.0 10.0 0.00 0.00 0.00 75 1018.1
20260831043028 61 5 5.0 11.0 0.00 0.00 0.00 74 1018.1
20260831041518 62 344 3.0 11.0 0.00 0.00 0.00 73 1018.1
20260831040018 62 333 6.0 11.0 0.00 0.00 0.00 71 1018.1
20260831034516 63 67 2.0 8.0 0.00 0.00 0.00 70 1018.1
20260831033019 63 83 3.0 11.0 0.00 0.00 0.00 68 1017.9
20260831031517 64 336 3.0 10.0 0.00 0.00 0.00 65 1017.9
20260831030016 65 13 4.0 8.0 0.00 0.00 0.00 63 1017.8
20260831024522 66 5 2.0 8.0 0.00 0.00 0.00 60 1017.9
20260831023013 67 16 1.0 4.0 0.00 0.00 0.00 60 1018.0
20260831021513 68 14 1.0 4.0 0.00 0.00 0.00 56 1018.1
20260831020011 69 13 2.0 4.0 0.00 0.00 0.00 55 1018.1
20260831014511 70 13 2.0 4.0 0.00 0.00 0.00 54 1018.2
20260831013017 70 11 2.0 5.0 0.00 0.00 0.00 55 1018.4
20260831011516 71 22 3.0 5.0 0.00 0.00 0.00 56 1018.4
20260831010012 71 5 2.0 4.0 0.00 0.00 0.00 55 1018.5